• In Belarus
  • List of Countries
  • For 7 days
  • Water Temperature
  • Satellite Maps
  • Weather Map
  • Weather Widgets
  • user-avatar
    Login

    Hourly Weather Rundu

    Today, 22 January, Tuesday

    Time Temperature Precipitation Wind Pressure Humidity
    00:00 +25°C° 0 mm 2 mps 667 mmHg 63%
    01:00 +24°C° 0 mm 3 mps 668 mmHg 62%
    02:00 +24°C° 0 mm 2 mps 667 mmHg 64%
    03:00 +23°C° 0 mm 2 mps 667 mmHg 65%
    04:00 +23°C° 0 mm 2 mps 667 mmHg 67%
    05:00 +24°C° 0 mm 2 mps 667 mmHg 62%
    06:00 +25°C° 0 mm 2 mps 668 mmHg 58%
    07:00 +27°C° 0 mm 2 mps 668 mmHg 52%
    08:00 +29°C° 0 mm 3 mps 669 mmHg 43%
    09:00 +31°C° 0 mm 3 mps 669 mmHg 34%
    10:00 +35°C° 0 mm 4 mps 669 mmHg 26%
    11:00 +36°C° 0 mm 4 mps 669 mmHg 23%
    12:00 +37°C° 0 mm 4 mps 669 mmHg 20%
    13:00 +40°C° 0 mm 5 mps 668 mmHg 18%
    14:00 +40°C° 0 mm 5 mps 667 mmHg 18%
    15:00 +40°C° 0 mm 4 mps 667 mmHg 18%
    16:00 +38°C° 0 mm 4 mps 666 mmHg 18%
    17:00 +36°C° 0 mm 3 mps 666 mmHg 23%
    18:00 +34°C° 0 mm 3 mps 666 mmHg 27%
    19:00 +31°C° 0 mm 2 mps 666 mmHg 31%
    20:00 +30°C° 0 mm 2 mps 666 mmHg 37%
    21:00 +28°C° 0 mm 2 mps 666 mmHg 44%
    22:00 +27°C° 0 mm 2 mps 667 mmHg 51%
    23:00 +26°C° 0 mm 2 mps 666 mmHg 54%

    Tomorrow, 23 January, Wednesday

    Time Temperature Precipitation Wind Pressure Humidity
    00:00 +25°C° 0 mm 1 mps 666 mmHg 58%
    01:00 +24°C° 0 mm 1 mps 666 mmHg 62%
    02:00 +23°C° 0 mm 1 mps 666 mmHg 64%
    03:00 +23°C° 0 mm 1 mps 666 mmHg 65%
    04:00 +22°C° 0 mm 1 mps 666 mmHg 67%
    05:00 +24°C° 0 mm 1 mps 666 mmHg 63%
    06:00 +25°C° 0 mm 1 mps 667 mmHg 58%
    07:00 +26°C° 0 mm 1 mps 667 mmHg 54%
    08:00 +29°C° 0 mm 1 mps 668 mmHg 46%
    09:00 +32°C° 0 mm 1 mps 668 mmHg 38%
    10:00 +34°C° 0 mm 1 mps 669 mmHg 30%
    11:00 +36°C° 0 mm 2 mps 668 mmHg 28%
    12:00 +36°C° 0 mm 2 mps 668 mmHg 25%
    13:00 +37°C° 0 mm 2 mps 667 mmHg 23%
    14:00 +35°C° 0 mm 1 mps 667 mmHg 23%
    15:00 +35°C° 0 mm 1 mps 666 mmHg 23%
    16:00 +35°C° 0 mm 1 mps 665 mmHg 23%
    17:00 +33°C° 0 mm 1 mps 665 mmHg 26%
    18:00 +32°C° 0 mm 1 mps 665 mmHg 28%
    19:00 +30°C° 0 mm 1 mps 665 mmHg 31%
    20:00 +30°C° 0 mm 1 mps 666 mmHg 33%
    21:00 +29°C° 0 mm 1 mps 666 mmHg 34%
    22:00 +28°C° 0 mm 1 mps 667 mmHg 36%
    23:00 +28°C° 0 mm 1 mps 667 mmHg 36%

    Day after tomorrow, 24 January, Thursday

    Time Temperature Precipitation Wind Pressure Humidity
    00:00 +28°C° 0 mm 1 mps 666 mmHg 37%
    01:00 +28°C° 0 mm 1 mps 666 mmHg 37%
    02:00 +27°C° 0 mm 1 mps 666 mmHg 41%
    03:00 +25°C° 0 mm 1 mps 665 mmHg 44%
    04:00 +24°C° 0 mm 1 mps 665 mmHg 48%
    05:00 +25°C° 0 mm 1 mps 665 mmHg 46%
    06:00 +26°C° 0 mm 1 mps 666 mmHg 44%
    07:00 +27°C° 0 mm 1 mps 667 mmHg 42%
    08:00 +31°C° 0 mm 1 mps 667 mmHg 34%
    09:00 +34°C° 0 mm 1 mps 668 mmHg 26%
    10:00 +38°C° 0 mm 2 mps 669 mmHg 18%
    11:00 +39°C° 0 mm 3 mps 668 mmHg 16%
    12:00 +40°C° 0 mm 3 mps 668 mmHg 14%
    13:00 +42°C° 0 mm 4 mps 667 mmHg 12%
    14:00 +41°C° 0 mm 4 mps 666 mmHg 14%
    15:00 +40°C° 0 mm 4 mps 666 mmHg 15%
    16:00 +38°C° 0 mm 3 mps 665 mmHg 17%
    17:00 +36°C° 0 mm 3 mps 665 mmHg 20%
    18:00 +32°C° 0 mm 2 mps 665 mmHg 23%
    19:00 +30°C° 0 mm 2 mps 665 mmHg 26%
    20:00 +29°C° 0 mm 1 mps 665 mmHg 28%
    21:00 +29°C° 0 mm 1 mps 666 mmHg 30%
    22:00 +26°C° 0 mm 0 mps 666 mmHg 32%
    23:00 +28°C° 0 mm 1 mps 666 mmHg 34%

    25 January, Friday

    Time Temperature Precipitation Wind Pressure Humidity
    00:00 +27°C° 0 mm 2 mps 666 mmHg 35%
    01:00 +27°C° 0 mm 3 mps 666 mmHg 36%
    02:00 +27°C° 0 mm 2 mps 666 mmHg 41%
    03:00 +26°C° 0 mm 2 mps 666 mmHg 46%
    04:00 +25°C° 0 mm 2 mps 665 mmHg 50%
    05:00 +26°C° 0 mm 2 mps 666 mmHg 49%
    06:00 +27°C° 0 mm 2 mps 667 mmHg 47%
    07:00 +28°C° 0 mm 1 mps 667 mmHg 45%
    08:00 +31°C° 0 mm 2 mps 668 mmHg 38%
    09:00 +35°C° 0 mm 2 mps 669 mmHg 30%
    10:00 +38°C° 0 mm 3 mps 669 mmHg 23%
    11:00 +38°C° 0 mm 3 mps 669 mmHg 21%
    12:00 +39°C° 0 mm 3 mps 668 mmHg 18%
    13:00 +40°C° 0 mm 3 mps 668 mmHg 16%
    14:00 +39°C° 0 mm 2 mps 667 mmHg 17%
    15:00 +39°C° 0 mm 2 mps 666 mmHg 18%
    16:00 +38°C° 0 mm 2 mps 666 mmHg 19%
    17:00 +36°C° 0 mm 2 mps 666 mmHg 23%
    18:00 +34°C° 0 mm 2 mps 666 mmHg 26%
    19:00 +31°C° 0 mm 2 mps 666 mmHg 29%
    20:00 +30°C° 0.1 mm 2 mps 666 mmHg 33%
    21:00 +30°C° 0.1 mm 3 mps 667 mmHg 37%
    22:00 +29°C° 0.1 mm 3 mps 667 mmHg 41%
    23:00 +28°C° 0.2 mm 2 mps 667 mmHg 44%

    26 January, Saturday

    Time Temperature Precipitation Wind Pressure Humidity
    00:00 +28°C° 0.2 mm 1 mps 667 mmHg 47%
    01:00 +25°C° 0.2 mm 0 mps 667 mmHg 50%
    02:00 +27°C° 0 mm 1 mps 667 mmHg 51%
    03:00 +26°C° 0 mm 1 mps 667 mmHg 52%
    04:00 +26°C° 0 mm 2 mps 666 mmHg 52%
    05:00 +27°C° 0 mm 1 mps 667 mmHg 51%
    06:00 +27°C° 0 mm 1 mps 667 mmHg 50%
    07:00 +28°C° 0 mm 1 mps 668 mmHg 49%
    08:00 +31°C° 0 mm 1 mps 668 mmHg 40%
    09:00 +35°C° 0 mm 1 mps 669 mmHg 31%
    10:00 +39°C° 0 mm 1 mps 670 mmHg 23%
    11:00 +39°C° 0 mm 1 mps 669 mmHg 23%
    12:00 +37°C° 0 mm 1 mps 668 mmHg 23%
    13:00 +37°C° 0 mm 1 mps 668 mmHg 23%
    14:00 +36°C° 0 mm 1 mps 667 mmHg 23%
    15:00 +37°C° 0 mm 2 mps 667 mmHg 24%
    16:00 +37°C° 0 mm 2 mps 667 mmHg 24%
    17:00 +35°C° 0.1 mm 3 mps 667 mmHg 31%
    18:00 +31°C° 0.1 mm 3 mps 666 mmHg 39%
    19:00 +28°C° 0.1 mm 4 mps 666 mmHg 46%
    20:00 +28°C° 0.2 mm 3 mps 667 mmHg 50%
    21:00 +27°C° 0.2 mm 2 mps 667 mmHg 53%
    22:00 +27°C° 0.2 mm 1 mps 668 mmHg 57%
    23:00 +26°C° 0 mm 1 mps 667 mmHg 57%

    27 January, Sunday

    Time Temperature Precipitation Wind Pressure Humidity
    00:00 +26°C° 0 mm 2 mps 667 mmHg 57%
    01:00 +26°C° 0 mm 2 mps 666 mmHg 57%
    02:00 +25°C° 0 mm 1 mps 666 mmHg 60%
    03:00 +24°C° 0 mm 1 mps 666 mmHg 63%
    04:00 +24°C° 0 mm 1 mps 665 mmHg 65%
    05:00 +24°C° 0.2 mm 1 mps 666 mmHg 65%
    06:00 +25°C° 0.2 mm 1 mps 666 mmHg 65%
    07:00 +25°C° 0.2 mm 1 mps 667 mmHg 65%
    08:00 +29°C° 0 mm 1 mps 668 mmHg 54%
    09:00 +32°C° 0 mm 1 mps 668 mmHg 43%
    10:00 +36°C° 0 mm 1 mps 669 mmHg 32%
    11:00 +37°C° 0 mm 1 mps 668 mmHg 29%
    12:00 +39°C° 0 mm 1 mps 668 mmHg 26%
    13:00 +39°C° 0 mm 1 mps 667 mmHg 23%
    14:00 +37°C° 0 mm 1 mps 667 mmHg 25%
    15:00 +36°C° 0 mm 1 mps 666 mmHg 26%
    16:00 +35°C° 0 mm 1 mps 666 mmHg 28%
    17:00 +34°C° 0 mm 1 mps 666 mmHg 30%
    18:00 +33°C° 0 mm 1 mps 666 mmHg 33%
    19:00 +31°C° 0 mm 1 mps 666 mmHg 35%
    20:00 +30°C° 0 mm 1 mps 666 mmHg 38%
    21:00 +29°C° 0 mm 2 mps 666 mmHg 41%
    22:00 +28°C° 0 mm 2 mps 666 mmHg 44%
    23:00 +28°C° 0 mm 2 mps 666 mmHg 46%
    Show more